Location: Hermaringen
(48.5952°N, 10.2585°E)
Time: 19:53:00
(UTC+00:00)

S-56A Canister/Altair - Pass Details

Date: 21 February 2026
Orbit: 633 x 2484 km, 38.9° (Epoch: 13 March)

Event Time Altitude Azimuth Distance (km) Brightness Sun altitude
Exits shadow 03:14:09 25° 188° (S) 2,949 10.2 -30.5°
Drops below altitude 10° 03:21:01 10° 154° (SSE) 4,429 11.4 -29.4°
Sets 03:25:52 0° 144° (SE) 5,705 12.2 -28.6°
